Location: Corralito
(10.2667°N, 66.9500°W)
Time: 10:17:48
(UTC+00:00)

GPS 2-15 Rocket1 - Pass Details

Date: 13 December 2023
Orbit: 617 x 666 km, 19.8° (Epoch: 02 March)

Event Time Altitude Azimuth Distance (km) Brightness Sun altitude
Exits shadow 08:17:02 26° 131° (SE) 1,198 5.0 -32.6°
Drops below altitude 10° 08:19:12 10° 121° (ESE) 1,970 6.5 -32.1°
Sets 08:21:36 0° 117° (ESE) 2,882 7.6 -31.5°
